Location: Czubrowice
(50.2138°N, 19.6890°E)
Time: 11:09:29
(UTC+00:00)

Daily predictions for brighter satellites

Satellite Brightness Start Highest point End
(mag) Time Altitude Azimuth Time Altitude Azimuth Time Altitude Azimuth
USA 234 3.9 18:25:55 10° E 18:32:15 55° NNE 18:38:35 10° WNW
BREEZE-M (TANK) 4.2 18:29:58 10° WSW 18:34:08 75° SSE 18:51:48 10° E
IRIDIUM 114 4.3 18:29:37 10° S 18:34:48 72° E 18:40:02 10° N
SL-08 RB Rocket 4.4 18:32:09 10° S 18:36:44 59° W 18:41:22 10° NNW
Cosmos 1666 Rocket 4.0 18:33:13 10° SSE 18:37:17 42° E 18:41:24 10° NNE
SL-4 R/B 1.9 18:34:36 10° WSW 18:38:38 63° SSE 18:42:22 10° ENE
Cosmos 2360 4.4 18:36:13 10° NNW 18:41:59 78° WSW 18:47:42 10° SSE
IRIDIUM 103 4.4 18:38:43 10° S 18:43:57 85° E 18:49:12 10° N
FREGAT/IRIS 4.0 18:42:25 10° SSW 18:44:52 34° W 18:47:19 10° NNW
SWAS 4.4 18:41:35 10° SSW 18:45:54 81° ESE 18:50:15 10° NNE
Cosmos 2219 Rocket 4.5 18:43:59 10° N 18:46:29 13° NNE 18:48:59 10° NE
SL-16 R/B 3.2 18:41:47 10° NNW 18:46:58 34° NE 18:52:07 10° ESE
USA 238 DEB 4.1 18:41:07 10° S 18:47:09 39° ESE 18:53:27 10° NE
USA 238 4.1 18:41:15 10° S 18:47:17 39° ESE 18:53:33 10° NE
Cosmos 1954 Rocket 4.5 18:42:38 10° S 18:47:35 41° ESE 18:52:34 10° NE
Cosmos 1805 Rocket 3.8 18:43:45 10° SSW 18:48:12 79° W 18:52:42 10° N
CZ-2C R/B 2.6 18:44:35 10° NNE 18:49:48 85° ESE 18:55:03 10° SSW
Resurs 1-3 3.6 18:45:48 10° SSE 18:50:12 87° ENE 18:54:37 10° NNW
Cosmos 2123 Rocket 4.1 18:44:11 10° N 18:50:22 63° ENE 18:56:34 10° SSE
Spot 2 Rocket 4.3 18:45:51 10° SE 18:50:27 35° ENE 18:55:03 10° N
BREEZE-M DEB (TANK) 2.1 18:49:01 10° WSW 18:51:27 63° SSE 18:56:47 10° E
deb Kosmos-1763 4.1 18:49:31 10° S 18:53:03 53° ESE 18:56:38 10° NNE
Ariane Rocket 4.1 18:48:18 10° S 18:53:07 45° W 18:57:59 10° NNW
Cosmos 2239 Rocket 4.5 18:49:02 10° S 18:55:09 77° E 19:01:20 10° NNE
Cosmos 2369 4.4 18:51:44 10° NW 18:57:20 53° WSW 19:02:51 10° S
Cosmos 2082 Rocket 2.2 18:52:38 10° SSW 18:58:16 66° ESE 19:03:54 10° NNE
CENTAUR R/B 3.3 18:53:19 10° S 18:58:17 28° ESE 19:03:56 10° NE
COSMOS 2406 3.9 18:52:56 10° SW 18:58:37 61° NW 19:04:19 10° NNE
Cosmos 407 Rocket 3.6 18:53:37 10° SSW 18:58:57 86° WNW 19:04:15 10° NNE
Cosmos 1190 Rocket 4.0 18:55:47 10° SSW 19:01:04 83° ESE 19:06:25 10° NNE
Lacrosse 5 1.9 18:56:38 10° WNW 19:01:45 80° NNE 19:06:26 12° ESE
Cosmos 1605 Rocket 4.4 18:57:06 10° SSE 19:02:47 42° E 19:08:28 10° NNE
Cosmos 2278 4.0 18:58:51 10° NNW 19:04:32 68° WSW 19:10:10 10° SSE
Terra 3.6 19:01:28 10° E 19:04:41 18° ENE 19:07:55 10° NNE
Cosmos 2322 Rocket 3.1 19:00:33 10° NNW 19:05:52 38° NE 19:10:41 12° ESE
Cosmos 1633 Rocket 3.0 19:01:36 10° S 19:05:59 69° E 19:10:23 10° NNE
Cosmos 1238 Rocket 3.3 19:05:21 14° SE 19:07:12 24° E 19:09:42 10° NE
Cosmos 1763 Rocket 4.0 19:02:50 10° NNW 19:08:00 47° ENE 19:12:26 14° SE
Cosmos 1140 Rocket 3.6 19:05:25 10° SSW 19:10:40 87° WNW 19:15:58 10° NNE
USA 276 2.0 19:09:01 10° W 19:12:12 81° S 19:14:46 15° ESE
Cosmos 2360 Rocket 3.5 19:11:25 10° NNW 19:16:20 29° NE 19:20:54 11° ESE
X-37B 1.6 19:13:37 10° WSW 19:16:28 31° S 19:18:09 19° SE
Cosmos 921 Rocket 2.9 19:13:02 10° NNW 19:17:16 82° ENE 19:20:55 13° SSE
H-2A R/B 3.7 19:16:18 10° NNE 19:20:19 47° E 19:24:19 10° S
FALCON 9 DEB 3.2 19:17:01 10° WSW 19:20:32 86° NNW 19:24:03 10° ENE
Cosmos 2084 Rocket 4.5 19:17:33 10° S 19:20:55 24° ESE 19:24:22 10° ENE
Cosmos 2242 Rocket 3.9 19:16:40 10° N 19:21:00 48° ENE 19:24:16 16° SE
Cosmos 44 3.8 19:19:34 10° NNW 19:24:19 52° NE 19:28:10 16° ESE
OBJECT-B 2.7 19:22:05 10° SSW 19:25:01 30° W 19:27:59 10° NNW
Cosmos 1980 Rocket 2.9 19:19:57 10° NW 19:25:27 53° WSW 19:30:54 10° S
CZ-2C R/B 4.0 19:23:11 10° N 19:27:48 71° WNW 19:32:17 10° SSW
Cosmos 1602 4.1 19:28:20 15° SSE 19:31:17 44° E 19:35:03 10° NNE
Cosmos 1470 Rocket 3.5 19:29:20 10° S 19:33:43 75° E 19:38:07 10° NNE
Meteor 1-20 Rocket 4.3 19:30:11 10° S 19:35:59 74° E 19:41:51 10° NNE
Meteor 1-4 Rocket 4.1 19:34:21 10° NNW 19:37:28 31° W 19:40:33 10° SSW
USA 267 3.5 19:32:00 10° ENE 19:38:15 45° SE 19:44:28 10° SSW
Cosmos 1833 Rocket 3.9 19:32:53 10° SW 19:38:16 45° NW 19:43:42 10° NNE
NOSS 3-2 (A) 3.3 19:32:40 10° SSW 19:38:24 76° SE 19:45:02 10° NE
Cosmos 1184 Rocket 3.2 19:35:08 10° SSW 19:38:25 64° WNW 19:41:43 10° N
SPOT 5 3.2 19:40:40 22° SE 19:43:04 43° ENE 19:47:17 10° N
Cosmos 405 Rocket 2.5 19:42:21 14° S 19:45:27 71° E 19:49:13 10° NNE
Cosmos 1862 Rocket 4.4 19:42:09 10° NNW 19:46:29 50° W 19:50:44 10° SSW
Cosmos 540 Rocket 3.9 19:41:50 10° NNW 19:46:54 50° ENE 19:49:56 23° SE
SL-27 R/B 3.1 19:46:34 30° ESE 19:46:59 31° ESE 19:49:58 10° NE
NOSS 3-2 (C) 3.4 19:42:07 10° SSW 19:47:44 58° SE 19:54:10 10° NE
Cosmos 1437 Rocket 2.7 19:44:17 10° N 19:48:04 65° ENE 19:49:58 27° SSE
SPOT 1/Viking Rocket 3.5 19:45:04 18° SSE 19:49:01 85° ENE 19:54:17 10° NNW
Landsat 7 3.9 19:48:45 16° S 19:52:30 75° WSW 19:57:17 10° NNW
Resurs 01 Rocket 3.0 19:48:42 10° SSW 19:52:46 35° W 19:56:51 10° NNW
Cosmos 2333 Rocket 3.8 19:48:49 10° NNW 19:53:37 26° NE 19:57:45 13° E
ERBS 4.4 19:51:15 10° NW 19:54:03 25° N 19:56:51 10° ENE
USA 32 4.2 19:48:59 10° SSW 19:54:12 75° W 19:59:28 10° N
Cosmos 1515 3.6 19:51:24 10° N 19:55:16 75° E 19:57:05 29° SSE
Cosmos 1850 Rocket 4.0 19:51:16 10° S 19:56:28 62° ESE 20:01:41 10° NNE
ERS-1 Rocket 3.0 19:56:12 24° SSE 19:59:15 73° ENE 20:04:17 10° NNW
GP-B 3.7 19:56:04 10° N 20:00:27 56° W 20:04:47 10° SSW
Okean 1 3.6 19:59:36 10° NNW 20:03:38 64° W 20:06:08 22° S
Meteor 1-19 Rocket 4.2 19:59:06 10° NNW 20:04:32 79° W 20:08:20 21° S
Cosmos 841 Rocket 3.5 19:59:29 10° NNW 20:04:44 70° ENE 20:07:29 28° SE
CARTOSAT-1 3.5 20:06:55 29° SSE 20:09:04 87° E 20:13:26 10° NNW
BREEZE-M DEB (TANK) 2.5 20:10:14 10° W 20:11:50 38° WSW 20:11:50 38° WSW
Cosmos 1933 Rocket 4.0 20:10:13 10° SSW 20:14:31 62° WNW 20:18:57 10° N
USA 234 3.2 20:10:46 24° ESE 20:15:04 86° SSW 20:21:40 10° WNW
Okean 3 3.9 20:10:57 10° N 20:15:09 48° ENE 20:16:26 36° ESE
ATLAS 3B R/B 3.0 20:14:38 22° S 20:18:08 38° ESE 20:24:12 10° NE
SL-4 R/B 2.0 20:14:23 10° W 20:18:16 70° N 20:20:23 23° ENE
Meteor 2-4 Rocket 3.6 20:15:44 10° NNW 20:21:25 89° ENE 20:24:18 30° SSE
Cosmos 1869 Rocket 3.5 20:23:52 35° S 20:25:42 73° E 20:30:10 10° NNE
Iridium 4 Rocket 3.2 20:25:27 42° SE 20:26:28 54° E 20:30:33 10° NNE
Cosmos 1814 Rocket 3.9 20:23:08 10° NNW 20:28:23 87° ENE 20:30:36 36° SSE
Meteor 1-14 Rocket 4.5 20:23:18 12° SSW 20:28:44 77° WNW 20:34:44 10° N
Meteor 1-13 Rocket 4.2 20:24:28 10° N 20:30:00 68° ENE 20:32:18 35° SSE
SL-16 R/B 2.7 20:25:50 10° NW 20:31:20 53° WSW 20:34:14 27° S
Cosmos 2219 Rocket 3.2 20:26:56 10° NNW 20:32:13 37° NE 20:35:05 23° E
Okean 1-7 3.7 20:29:47 10° NNW 20:33:57 48° W 20:36:00 26° SSW
Cosmos 1741 Rocket 4.2 20:28:53 10° SSW 20:34:08 72° WNW 20:39:28 10° NNE
Cosmos 1703 Rocket 4.5 20:30:54 10° NNW 20:35:01 42° W 20:37:16 23° SSW
Cosmos 1536 3.6 20:36:28 35° E 20:36:28 35° E 20:40:00 10° NNE
ATLAS 5 CENTAUR R/B 1.9 20:35:12 10° NW 20:37:49 78° NE 20:39:34 37° ESE
USA 238 DEB 4.2 20:31:14 10° WSW 20:37:51 62° NW 20:44:49 10° NE
USA 238 4.2 20:31:21 10° WSW 20:37:58 62° NW 20:44:56 10° NE
Cosmos 2322 4.1 20:33:43 10° NNW 20:39:17 54° NE 20:41:39 32° ESE
Cosmos 1674 Rocket 4.4 20:36:22 10° N 20:40:22 35° ENE 20:41:02 33° E
Cosmos 1570 Rocket 4.3 20:35:10 10° NNW 20:40:27 63° WSW 20:42:42 34° S
Tsikada Rocket 4.3 20:34:40 10° N 20:40:54 54° ENE 20:43:25 34° SE
Terra 1.9 20:40:06 38° S 20:41:54 75° WSW 20:46:42 10° NNW
Cosmos 2082 Rocket 4.2 20:37:55 10° WSW 20:42:49 29° NW 20:47:44 10° NNE
Lacrosse 5 3.1 20:40:01 10° WNW 20:44:20 28° SW 20:45:36 25° SSW
CENTAUR R/B 2.8 20:42:06 10° SW 20:48:12 75° NW 20:55:33 10° NE
USA 276 3.9 20:45:26 10° W 20:47:07 23° WSW 20:47:07 23° WSW
Cosmos 2208 Rocket 4.2 20:44:02 10° NNW 20:49:14 63° WSW 20:51:06 38° S
Cosmos 2100 Rocket 4.0 20:45:27 24° SSW 20:49:23 81° W 20:55:35 10° N
Cosmos 2322 Rocket 2.9 20:44:37 10° NW 20:50:03 46° WSW 20:52:29 29° SSW
X-37B 3.4 20:50:20 10° WSW 20:50:24 10° WSW 20:50:24 10° WSW
Cosmos 2333 4.4 20:48:19 10° NNW 20:54:07 67° ENE 20:56:12 40° SE
Cosmos 2173 Rocket 4.0 20:52:59 25° SSW 20:56:45 77° W 21:02:54 10° N
Cosmos 1733 Rocket 3.2 20:57:31 52° ESE 20:57:46 52° E 21:02:05 10° NNE
FALCON 9 DEB 3.9 20:54:21 10° WNW 20:57:47 51° N 20:58:46 37° NE
Cosmos 2237 4.4 20:52:22 10° NW 20:58:02 64° WSW 20:59:59 40° S
ALOS 2 4.1 20:57:42 23° E 20:58:33 24° ENE 21:02:06 10° N
Cosmos 2084 Rocket 4.0 20:55:56 10° WSW 21:00:06 58° NW 21:04:23 10° NE
Cosmos 2360 Rocket 2.3 20:55:11 10° NNW 21:00:49 67° WSW 21:02:39 42° S
Cosmos 1500 4.0 20:59:53 34° WSW 21:01:00 46° WNW 21:04:38 10° N
Cosmos 44 4.4 21:01:02 10° NW 21:05:26 33° WSW 21:06:35 29° SW
Cosmos 1725 Rocket 3.9 21:04:43 40° S 21:07:11 77° E 21:13:32 10° NNE
Cosmos 1356 3.7 21:10:48 66° NNW 21:10:48 66° NNW 21:13:50 10° N
SL-08 R/B 4.3 21:09:16 41° S 21:11:35 83° E 21:17:43 10° N
Cosmos 1666 2.6 21:11:57 77° W 21:11:58 77° W 21:15:45 10° N
Cosmos 1459 Rocket 4.4 21:08:09 22° SSW 21:12:15 62° WNW 21:18:36 10° N
Cosmos 2016 Rocket 4.1 21:13:22 34° SSW 21:16:24 80° W 21:22:50 10° N
Cosmos 1242 Rocket 2.7 21:13:15 10° NNW 21:16:36 72° NW 21:16:36 72° NW
Cosmos 968 Rocket 3.8 21:18:03 45° ESE 21:18:04 45° ESE 21:22:57 10° NE
Cosmos 2297 Rocket 4.4 21:20:13 11° E 21:20:13 11° E 21:20:48 10° E
COSMOS 2428 2.9 21:14:27 10° NNW 21:20:11 67° ENE 21:21:52 45° ESE
Cosmos 2221 Rocket 4.2 21:16:19 10° NNW 21:20:39 48° W 21:21:32 42° SW
Cosmos 44 Rocket 3.5 21:16:09 10° NW 21:21:08 69° NE 21:22:14 52° ESE
SPOT 5 4.4 21:19:54 19° WSW 21:21:24 23° W 21:24:56 10° NW
USA 267 3.4 21:15:01 10° ENE 21:21:34 77° NNW 21:28:06 10° WSW
Cosmos 1743 3.5 21:28:20 43° ENE 21:28:20 43° ENE 21:31:23 10° NNE
Cosmos 1378 3.4 21:24:59 10° N 21:28:16 64° NNE 21:28:16 64° NNE
Lacrosse 4 Rocket 1.4 21:29:55 72° ENE 21:29:55 72° ENE 21:33:46 10° NE
Cosmos 1908 Rocket 4.2 21:30:25 43° ENE 21:30:25 43° ENE 21:34:11 10° NNE
Cosmos 2237 Rocket 3.3 21:24:51 10° NNW 21:30:06 37° NE 21:32:28 26° E
ERBS 3.4 21:27:39 10° NW 21:30:18 42° N 21:30:18 42° N
CRYOSAT 2 4.3 21:26:28 10° N 21:31:23 82° W 21:32:12 62° SSW
Cosmos 1378 Rocket 3.4 21:28:42 10° N 21:33:11 88° E 21:33:20 84° SSE
Cosmos 836 Rocket 4.3 21:29:03 10° NNW 21:34:18 84° WSW 21:35:04 65° S
Cosmos 1271 Rocket 2.9 21:32:06 10° N 21:35:26 66° N 21:35:26 66° N
Cosmos 2333 Rocket 2.2 21:32:46 10° NNW 21:38:34 80° WSW 21:39:44 58° S
Cosmos 2061 Rocket 4.5 21:37:27 29° SW 21:40:31 56° WNW 21:46:38 10° N
Meteor 1-11 Rocket 4.3 21:42:34 31° SW 21:45:06 53° WNW 21:50:48 10° N
Cosmos 1544 4.4 21:47:21 34° NE 21:47:21 34° NE 21:49:46 10° NNE
Cosmos 2233 Rocket 4.0 21:45:59 48° SSW 21:47:56 85° W 21:54:19 10° N
Cosmos 1975 Rocket 3.5 21:48:49 10° N 21:53:12 51° ENE 21:53:12 51° ENE
Cosmos 1354 Rocket 4.2 21:53:25 54° ESE 21:53:27 54° ESE 21:58:39 10° NNE
COSMOS 2487 3.7 21:55:26 38° NW 21:55:26 38° NW 21:58:18 10° N
Cosmos 1464 Rocket 4.4 21:54:49 43° ESE 21:55:53 47° E 22:01:46 10° NNE
Thor Agena Rocket 3.4 21:52:25 10° NNE 21:57:33 88° WNW 21:58:13 68° SSW
SL-4 R/B 3.5 21:54:14 10° WNW 21:55:57 25° WNW 21:55:57 25° WNW
USA 234 4.1 21:58:07 32° SW 21:58:39 32° SW 22:04:24 10° WNW
Spot 4 4.2 22:03:39 49° WSW 22:03:56 50° W 22:08:39 10° NNW
Nimbus 7 Rocket 4.3 21:59:14 10° NNE 22:05:06 70° ESE 22:06:02 59° SSE
Nadezhda 4 Rocket 4.5 21:59:43 10° N 22:05:50 50° ENE 22:07:27 40° ESE
ATLAS 3B R/B 3.0 22:02:04 10° WSW 22:08:35 61° NW 22:15:14 10° NE
Cosmos 2227 Rocket 3.6 22:09:36 23° E 22:09:36 23° E 22:13:35 10° NE
Okean 2 Rocket 4.5 22:12:54 29° ENE 22:12:54 29° ENE 22:16:21 10° NNE
Cosmos 1707 4.0 22:09:00 10° N 22:12:09 34° NE 22:12:09 34° NE
Cosmos 2219 Rocket 2.6 22:10:53 10° NW 22:16:20 48° WSW 22:16:47 47° SW
Cosmos 1025 Rocket 4.1 22:12:34 10° N 22:16:26 35° ENE 22:16:26 35° ENE
NOSS 0 Rocket 3.8 22:13:10 10° NNW 22:19:26 80° WSW 22:20:35 61° S
Cosmos 783 Rocket 4.4 22:15:03 10° NNW 22:20:18 74° WSW 22:20:35 72° SW
Terra 4.3 22:19:34 10° W 22:20:30 10° W 22:21:25 10° WNW
EO 1 Del DPAF 4.1 22:20:33 10° N 22:23:43 45° NW 22:23:43 45° NW
Cosmos 1842 4.0 22:20:22 10° NNW 22:23:29 50° NW 22:23:29 50° NW
Cosmos 2034 Rocket 4.2 22:26:37 51° SE 22:27:46 59° E 22:33:58 10° NNE
Cosmos 1072 Rocket 4.3 22:28:19 62° S 22:29:27 86° E 22:35:36 10° N
Cosmos 1503 Rocket 4.1 22:29:01 62° WSW 22:29:50 74° WNW 22:35:14 10° NNE
Cosmos 2344 4.3 22:20:48 10° NW 22:29:58 84° NE 22:39:29 20° SE
Sich 1 Rocket 3.9 22:31:05 59° ENE 22:31:05 59° ENE 22:34:57 10° NNE
Okean 2 4.2 22:28:23 10° NNW 22:31:45 44° WNW 22:31:45 44° WNW
Cosmos 1891 Rocket 4.5 22:31:05 58° S 22:32:29 88° E 22:38:55 10° N
DNEPR-1 R/B 4.1 22:27:44 10° NW 22:33:49 76° NE 22:34:40 61° ESE
YAOGAN 11 4.3 22:34:00 67° ENE 22:34:01 67° ENE 22:38:34 10° N
ALOS 2 3.3 22:35:05 43° W 22:35:05 43° W 22:38:54 10° NNW
CENTAUR R/B 4.4 22:34:06 10° W 22:40:05 34° NNW 22:47:02 10° NE
Resurs 1-4 Rocket 4.4 22:41:40 10° ENE 22:43:04 11° E 22:44:28 10° E
Cosmos 1975 3.6 22:43:45 48° NW 22:43:45 48° NW 22:47:13 10° N
Cosmos 2360 Rocket 4.4 22:41:55 10° WNW 22:43:43 11° W 22:44:24 11° WSW
SL-16 R/B 2.9 22:38:34 10° NNW 22:44:06 49° NE 22:46:18 32° ESE
Cosmos 2151 Rocket 4.4 22:45:26 41° ENE 22:45:26 41° ENE 22:49:09 10° NNE
Meteor 1-21 4.4 22:41:32 10° NNW 22:47:13 58° W 22:47:53 54° SW
Cosmos 773 Rocket 4.2 22:49:57 10° NNW 22:54:49 56° W 22:54:49 56° W
Cosmos 1536 Rocket 3.8 22:51:38 10° N 22:55:38 64° NE 22:55:38 64° NE
SL-16 R/B 4.0 22:52:56 14° ESE 22:57:16 31° ENE 23:02:37 10° N
Helios 1A 3.5 22:59:36 51° WNW 22:59:36 51° WNW 23:03:07 10° NNW
Cosmos 1782 Rocket 4.4 23:00:31 41° WNW 23:00:31 41° WNW 23:04:34 10° N
Uosat 12 SS-18 rocket 4.4 23:02:10 61° E 23:02:10 61° E 23:06:02 10° NE
PSLV R/B 4.0 22:57:11 10° NNE 23:01:46 61° E 23:01:46 61° E
Cosmos 2297 Rocket 2.2 23:02:01 62° SE 23:02:24 64° ESE 23:08:01 10° NE
COSMOS 2428 4.1 22:59:27 10° NW 23:03:51 25° W 23:03:51 25° W
USA 267 4.1 22:57:58 10° ENE 23:04:13 51° N 23:10:30 10° WNW
Cosmos 1980 3.9 23:00:35 10° NW 23:06:04 51° WSW 23:06:08 51° WSW
Cosmos 1538 Rocket 3.9 23:01:06 10° NNW 23:06:15 69° WSW 23:06:16 69° WSW
Lacrosse 4 Rocket 3.8 23:06:11 12° W 23:08:44 20° NW 23:11:50 10° N
Cosmos 1607 3.9 23:05:13 10° NW 23:11:42 87° SW 23:13:36 50° SE
In-Cosmos 22 4.0 23:06:41 10° NNW 23:12:16 81° W 23:12:49 71° SSW
Cosmos 1461 4.5 23:13:38 28° E 23:13:38 28° E 23:16:36 10° NE
Cosmos 2219 3.0 23:13:12 70° SSW 23:13:54 86° ESE 23:19:33 10° NNE
Cosmos 2237 Rocket 2.5 23:08:55 10° NW 23:14:16 47° WSW 23:14:16 47° WSW
Cosmos 2026 Rocket 3.9 23:13:29 10° N 23:19:37 79° E 23:21:07 54° SSE
Cosmos 2333 Rocket 4.2 23:18:52 10° WNW 23:21:43 15° W 23:21:43 15° W
Timation 2 Rocket 4.2 23:26:06 42° WSW 23:28:01 61° NW 23:34:00 10° NNE
Meteor 1-12 Rocket 4.5 23:28:45 54° SW 23:30:00 68° WNW 23:36:03 10° N
Cosmos 2112 Rocket 4.3 23:25:44 10° NNW 23:30:57 63° ENE 23:32:21 45° ESE
Cosmos 158 Rocket 4.1 23:26:57 10° NNW 23:32:22 75° ENE 23:33:37 53° SE
USA 229 DEB 4.4 23:32:46 32° SE 23:33:53 34° ESE 23:39:54 10° NE
USA 229 4.4 23:32:52 32° SE 23:33:58 34° ESE 23:39:57 10° NE
Cosmos 1674 3.3 23:30:13 10° N 23:33:07 52° N 23:33:07 52° N
Cosmos 1300 Rocket 4.1 23:34:20 48° WNW 23:34:20 48° WNW 23:38:21 10° N
Cosmos 1627 Rocket 4.4 23:30:24 10° NNW 23:36:35 77° W 23:37:58 56° SSW
Cosmos 1634 Rocket 3.9 23:35:14 55° S 23:36:43 84° E 23:42:58 10° N
Cosmos 1898 Rocket 4.4 23:39:48 35° ESE 23:40:30 36° ESE 23:45:15 10° NE
MOZ.5/SAFIR/RUBIN 5/SL-8 4.1 23:42:13 51° ESE 23:43:09 62° ENE 23:47:50 10° N
Cosmos 1766 3.7 23:45:23 54° ENE 23:45:23 54° ENE 23:48:48 10° NNE
Helios 1B rocket 2.5 23:41:10 10° NNE 23:45:01 73° NNW 23:45:01 73° NNW
Cosmos 1680 Rocket 3.4 23:41:15 10° NNW 23:46:31 88° WSW 23:47:20 65° SSE
CZ-2D R/B 3.2 23:41:37 10° NNE 23:46:40 36° E 23:48:16 30° SE
Meteor 2-5 Rocket 3.6 23:41:25 10° N 23:47:04 83° ENE 23:48:23 54° SSE
Okean 2 Rocket 4.1 23:50:15 34° WNW 23:50:27 34° WNW 23:54:36 10° N
Okean 1 Rocket 2.9 23:51:41 88° WNW 23:51:41 88° WNW 23:56:04 10° N
Meteor 1-29 3.8 23:48:16 10° NNE 23:50:57 51° NNE 23:50:57 51° NNE
Cosmos 2227 Rocket 2.3 23:51:25 51° WSW 23:52:46 69° WNW 23:58:27 10° NNE
Cosmos 2142 Rocket 4.5 23:51:26 49° S 23:53:19 83° E 23:59:46 10° N
Cosmos 1733 3.6 23:55:03 60° ENE 23:55:03 60° ENE 23:58:33 10° NNE
SJ 16-02 1.3 23:55:08 74° ESE 23:55:10 74° ESE 23:59:36 10° NNE
